OBJECT F, 59778

Orbit data source: Space-Track

You're viewing an Uncataloged Satellite

Recently launched and/or uncataloged satellites may have evolving metadata. Metadata may include but not limited to: Owner, Maufacturer, Bus, Motor, and Mission.

OBJECT F, 59778 is a satellite owned by Sitronics (CIS) in SSO that was launched on Thu, 16 May 2024 UTC via a SOYUZ-2-1B launch vehicle from the Plesetsk Missile And Space Complex (PKMTR). Unknown objects in Earth's orbit typically refer to objects detected orbiting the Earth but have not yet been identified or cataloged. These objects could be anything from previously untracked satellites, spent rocket stages, debris from satellite collisions, or even natural meteoroids temporarily captured by Earth's gravity.

Loading next visibility...
OBJECT F details
Identifier
59778, 2024-092F
Orbit
SSO
Last TLE update1 day ago
Origin
Flag of CISSitronics (CIS)
ManufacturerSputniks
MissionOperational spacecraft
Bus & MotorCUBESAT 3U?, Unknown motor
Mass3 kg wet, 3 kg dry
Launch date (UTC)
2024-05-16 (7 months ago)
Launch vehicle
SOYUZ-2-1B
Launch site
Plesetsk Missile And Space Complex (PKMTR)
Object typeUnknown
Shape & HBRUnknown
Radar Cross SectionSmall (<0.1 m²)

Expand to show TLE details & history

TLE from 1 day ago
0 OBJECT F
1 59778U 24092F   24347.76399332  .00013685  00000-0  72734-3 0  9994
2 59778  97.6101  98.6200 0011022 283.2017  76.7985 15.15357210 31664
Epoch: 2024-12-12T18:20Z
Definitive object data (Epoch: 2024-12-12T18:20:09.022Z)
Latitude-0.00006°
Longitude101.64277°
Altitude521.244 km
Speed7.604 km/s
True Right ascension06h 34m 28s
True Declination0° 00' 00"
Sunlit
Object was in full shadow at TLE epoch
Visualization TLE readout
Latitude21.20697°
Longitude99.81545°
Altitude524.138 km
Speed7.602 km/s
Apparent Right ascension07h 04m 36s
Apparent Declination-8° 07' 02"
Sunlit
Object is in full shadow
Visualization observer readout
Local Sidereal Time19:53:57
Azimuth22.44° NNE
Elevation-56.342°
Doppler factor1
Orbital elements
Apogee altitude524.475 km
Perigee altitude509.275 km
Semi-major axis6,895.012 km
Eccentricity0.0011022
Inclination97.6101°
RAAN98.62°
Arg. of periapsis283.2017°
True anomaly76.9215°
Mean anomaly76.7985°
Eccentric anomaly76.86°
Mean motion3.79089 °/min
BSTAR0.00072734
Orbital period94.96 mins
Loading maneuver chart data...
Loading historical data...
Loading historical data...
Loading historical data...
Loading historical data...
Loading historical data...
Loading historical data...
Loading historical data...

OBJECT F Visibility forecast

Observer location: undefined°, undefined

Span
Click to sort rows by Start time (UTC) header in descending order
Start Az.
Max El. time (UTC)
Max El. Az.
Max El.
End time (UTC)
End Az.
5 mins2024-12-14 06:56:14.171Z115.584° SE2024-12-14 06:58:14.171Z73.853° E23.017°2024-12-14 07:01:14.171Z16.562° NNE
4 mins2024-12-14 08:31:14.171Z239.526° WSW2024-12-14 08:32:14.171Z260.479° W18.933°2024-12-14 08:35:14.171Z313.667° NW
5 mins2024-12-14 20:03:14.171Z46.77° ENE2024-12-14 20:05:14.171Z109.106° ESE31.188°2024-12-14 20:08:14.171Z166.021° S
|